Time,TemperatureF,DewpointF,PressureIn,WindDirection,WindDirectionDegrees,WindSpeedMPH,WindSpeedGustMPH,Humidity,HourlyPrecipIn,Conditions,Clouds,dailyrainin,SoftwareType,DateUTC
2013-01-27 00:03:00,27.0,20.0,-100.00,NNE,15,3.0,7.0,73,0.00,,,-99.99,,2013-01-27 05:03:00,
2013-01-27 00:12:00,27.0,20.0,-100.00,North,10,3.0,11.0,73,0.00,,,-99.99,,2013-01-27 05:12:00,
2013-01-27 00:22:00,27.0,20.0,-100.00,North,0,1.0,7.0,73,0.00,,,-99.99,,2013-01-27 05:22:00,
2013-01-27 00:32:00,27.0,20.0,-100.00,North,0,1.0,7.0,73,0.00,,,-99.99,,2013-01-27 05:32:00,
2013-01-27 00:41:00,27.0,20.0,-100.00,NNE,30,2.0,4.0,74,0.00,,,-99.99,,2013-01-27 05:41:00,
2013-01-27 00:52:00,27.0,20.0,-100.00,NNW,330,2.0,4.0,75,0.00,,,-99.99,,2013-01-27 05:52:00,
2013-01-27 01:02:00,27.0,20.0,-100.00,NNW,330,2.0,4.0,75,0.00,,,-99.99,,2013-01-27 06:02:00,
2013-01-27 01:11:00,27.0,20.0,-100.00,NNW,330,1.0,7.0,75,0.00,,,-99.99,,2013-01-27 06:11:00,
2013-01-27 01:21:00,27.0,20.0,-100.00,NNE,15,1.0,10.0,75,0.00,,,-99.99,,2013-01-27 06:21:00,
2013-01-27 01:32:00,27.0,20.0,-100.00,NNE,15,1.0,10.0,75,0.00,,,-99.99,,2013-01-27 06:32:00,
2013-01-27 01:42:00,26.0,20.0,-100.00,NE,40,3.0,5.0,76,0.00,,,-99.99,,2013-01-27 06:42:00,
2013-01-27 01:52:00,26.0,20.0,-100.00,NE,40,4.0,6.0,77,0.00,,,-99.99,,2013-01-27 06:52:00,
2013-01-27 02:01:00,26.0,20.0,-100.00,NE,40,4.0,6.0,77,0.00,,,-99.99,,2013-01-27 07:01:00,
2013-01-27 02:14:00,26.0,20.0,-100.00,NE,45,4.0,6.0,77,0.00,,,-99.99,,2013-01-27 07:14:00,
2013-01-27 02:21:00,26.0,19.0,-100.00,East,80,1.0,6.0,77,0.00,,,-99.99,,2013-01-27 07:21:00,
2013-01-27 02:32:00,26.0,19.0,-100.00,East,80,1.0,6.0,77,0.00,,,-99.99,,2013-01-27 07:32:00,
2013-01-27 02:41:00,26.0,19.0,-100.00,NE,45,2.0,7.0,77,0.00,,,-99.99,,2013-01-27 07:41:00,
2013-01-27 02:51:00,26.0,19.0,-100.00,NE,40,3.0,6.0,77,0.00,,,-99.99,,2013-01-27 07:51:00,
2013-01-27 03:01:00,26.0,19.0,-100.00,NE,40,3.0,6.0,77,0.00,,,-99.99,,2013-01-27 08:01:00,
2013-01-27 03:12:00,25.0,19.0,-100.00,NE,40,4.0,6.0,77,0.00,,,-99.99,,2013-01-27 08:12:00,
2013-01-27 03:22:00,25.0,19.0,-100.00,NE,40,4.0,6.0,77,0.00,,,-99.99,,2013-01-27 08:22:00,
2013-01-27 03:32:00,25.0,19.0,-100.00,NNE,25,2.0,6.0,78,0.00,,,-99.99,,2013-01-27 08:32:00,
2013-01-27 03:42:00,25.0,19.0,-100.00,ENE,60,2.0,5.0,78,0.00,,,-99.99,,2013-01-27 08:42:00,
2013-01-27 03:52:00,25.0,19.0,-100.00,NE,50,2.0,4.0,78,0.00,,,-99.99,,2013-01-27 08:52:00,
2013-01-27 04:03:00,25.0,19.0,-100.00,NE,50,2.0,4.0,78,0.00,,,-99.99,,2013-01-27 09:03:00,
2013-01-27 04:11:00,25.0,19.0,-100.00,NE,35,2.0,4.0,78,0.00,,,-99.99,,2013-01-27 09:11:00,
2013-01-27 04:21:00,24.0,18.0,-100.00,ENE,60,2.0,5.0,79,0.00,,,-99.99,,2013-01-27 09:21:00,
2013-01-27 04:32:00,24.0,18.0,-100.00,ENE,60,2.0,5.0,79,0.00,,,-99.99,,2013-01-27 09:32:00,
2013-01-27 04:41:00,23.0,18.0,-100.00,ENE,70,2.0,4.0,80,0.00,,,-99.99,,2013-01-27 09:41:00,
2013-01-27 04:51:00,23.0,18.0,-100.00,ENE,65,2.0,4.0,82,0.00,,,-99.99,,2013-01-27 09:51:00,
2013-01-27 05:01:00,23.0,18.0,-100.00,ENE,65,2.0,4.0,82,0.00,,,-99.99,,2013-01-27 10:01:00,
2013-01-27 05:11:00,22.0,18.0,-100.00,ENE,65,2.0,4.0,83,0.00,,,-99.99,,2013-01-27 10:11:00,
2013-01-27 05:21:00,22.0,18.0,-100.00,East,85,1.0,3.0,84,0.00,,,-99.99,,2013-01-27 10:21:00,
2013-01-27 05:32:00,22.0,18.0,-100.00,East,85,1.0,3.0,84,0.00,,,-99.99,,2013-01-27 10:32:00,
2013-01-27 05:42:00,22.0,18.0,-100.00,NNW,335,0.0,3.0,84,0.00,,,-99.99,,2013-01-27 10:42:00,
2013-01-27 05:51:00,21.0,17.0,-100.00,North,10,0.0,2.0,84,0.00,,,-99.99,,2013-01-27 10:51:00,
2013-01-27 06:01:00,21.0,17.0,-100.00,North,10,0.0,2.0,84,0.00,,,-99.99,,2013-01-27 11:01:00,
2013-01-27 06:11:00,21.0,17.0,-100.00,NNE,25,2.0,4.0,86,0.00,,,-99.99,,2013-01-27 11:11:00,
2013-01-27 06:21:00,20.0,17.0,-100.00,North,0,1.0,4.0,86,0.00,,,-99.99,,2013-01-27 11:21:00,
2013-01-27 06:32:00,20.0,17.0,-100.00,North,0,1.0,4.0,86,0.00,,,-99.99,,2013-01-27 11:32:00,
2013-01-27 06:42:00,20.0,16.0,-100.00,NNE,20,1.0,4.0,86,0.00,,,-99.99,,2013-01-27 11:42:00,
2013-01-27 06:52:00,19.0,16.0,-100.00,NE,55,2.0,4.0,87,0.00,,,-99.99,,2013-01-27 11:52:00,
2013-01-27 07:02:00,19.0,16.0,-100.00,NE,55,2.0,4.0,87,0.00,,,-99.99,,2013-01-27 12:02:00,
2013-01-27 07:12:00,18.0,15.0,-100.00,NNE,25,3.0,7.0,88,0.00,,,-99.99,,2013-01-27 12:12:00,
2013-01-27 07:21:00,18.0,15.0,-100.00,East,95,3.0,7.0,89,0.00,,,-99.99,,2013-01-27 12:21:00,
2013-01-27 07:32:00,18.0,15.0,-100.00,East,95,3.0,7.0,89,0.00,,,-99.99,,2013-01-27 12:32:00,
2013-01-27 07:42:00,18.0,16.0,-100.00,NE,55,2.0,4.0,90,0.00,,,-99.99,,2013-01-27 12:42:00,
2013-01-27 07:52:00,18.0,15.0,-100.00,ENE,65,1.0,5.0,90,0.00,,,-99.99,,2013-01-27 12:52:00,
2013-01-27 08:02:00,18.0,15.0,-100.00,ENE,65,1.0,5.0,90,0.00,,,-99.99,,2013-01-27 13:02:00,
2013-01-27 08:11:00,18.0,15.0,-100.00,NE,40,2.0,4.0,90,0.00,,,-99.99,,2013-01-27 13:11:00,
2013-01-27 08:22:00,18.0,16.0,-100.00,North,0,2.0,5.0,90,0.00,,,-99.99,,2013-01-27 13:22:00,
2013-01-27 08:32:00,18.0,16.0,-100.00,North,0,2.0,5.0,90,0.00,,,-99.99,,2013-01-27 13:32:00,
2013-01-27 08:42:00,19.0,16.0,-100.00,NNE,15,2.0,6.0,90,0.00,,,-99.99,,2013-01-27 13:42:00,
2013-01-27 08:52:00,20.0,18.0,-100.00,NNE,20,3.0,6.0,91,0.00,,,-99.99,,2013-01-27 13:52:00,
2013-01-27 09:02:00,20.0,18.0,-100.00,NNE,20,3.0,6.0,91,0.00,,,-99.99,,2013-01-27 14:02:00,
2013-01-27 09:12:00,21.0,19.0,-100.00,North,350,3.0,7.0,91,0.00,,,-99.99,,2013-01-27 14:12:00,
2013-01-27 09:22:00,23.0,21.0,-100.00,NE,40,1.0,5.0,90,0.00,,,-99.99,,2013-01-27 14:22:00,
2013-01-27 09:33:00,23.0,21.0,-100.00,NE,40,1.0,5.0,90,0.00,,,-99.99,,2013-01-27 14:33:00,
2013-01-27 09:42:00,23.0,21.0,-100.00,ENE,60,2.0,6.0,90,0.00,,,-99.99,,2013-01-27 14:42:00,
2013-01-27 09:52:00,26.0,22.0,-100.00,SE,125,1.0,4.0,88,0.00,,,-99.99,,2013-01-27 14:52:00,
2013-01-27 10:02:00,26.0,22.0,-100.00,SE,125,1.0,4.0,88,0.00,,,-99.99,,2013-01-27 15:02:00,
2013-01-27 10:12:00,27.0,22.0,-100.00,East,85,0.0,2.0,84,0.00,,,-99.99,,2013-01-27 15:12:00,
2013-01-27 10:22:00,27.0,22.0,-100.00,SE,135,1.0,2.0,81,0.00,,,-99.99,,2013-01-27 15:22:00,
2013-01-27 10:32:00,27.0,22.0,-100.00,SE,135,1.0,2.0,81,0.00,,,-99.99,,2013-01-27 15:32:00,
2013-01-27 10:42:00,28.0,21.0,-100.00,SSE,150,4.0,6.0,77,0.00,,,-99.99,,2013-01-27 15:42:00,
2013-01-27 10:52:00,29.0,22.0,-100.00,SW,230,1.0,4.0,75,0.00,,,-99.99,,2013-01-27 15:52:00,
2013-01-27 11:02:00,29.0,22.0,-100.00,SW,230,1.0,4.0,75,0.00,,,-99.99,,2013-01-27 16:02:00,
2013-01-27 11:12:00,30.0,22.0,-100.00,SE,145,0.0,3.0,72,0.00,,,-99.99,,2013-01-27 16:12:00,
2013-01-27 11:21:00,29.0,20.0,-100.00,SW,230,1.0,3.0,70,0.00,,,-99.99,,2013-01-27 16:21:00,
2013-01-27 11:32:00,29.0,20.0,-100.00,SW,230,1.0,3.0,70,0.00,,,-99.99,,2013-01-27 16:32:00,
2013-01-27 11:42:00,31.0,21.0,-100.00,East,100,0.0,2.0,67,0.00,,,-99.99,,2013-01-27 16:42:00,
2013-01-27 11:52:00,31.0,21.0,-100.00,ESE,115,0.0,3.0,65,0.00,,,-99.99,,2013-01-27 16:52:00,
2013-01-27 12:02:00,31.0,21.0,-100.00,ESE,115,0.0,3.0,65,0.00,,,-99.99,,2013-01-27 17:02:00,
2013-01-27 12:12:00,31.0,20.0,-100.00,East,100,1.0,4.0,64,0.00,,,-99.99,,2013-01-27 17:12:00,
2013-01-27 12:22:00,31.0,20.0,-100.00,East,100,1.0,4.0,64,0.00,,,-99.99,,2013-01-27 17:22:00,
2013-01-27 12:32:00,31.0,20.0,-100.00,ESE,120,2.0,4.0,64,0.00,,,-99.99,,2013-01-27 17:32:00,
2013-01-27 12:42:00,32.0,20.0,-100.00,SW,235,3.0,5.0,63,0.00,,,-99.99,,2013-01-27 17:42:00,
2013-01-27 12:52:00,32.0,21.0,-100.00,SSW,210,1.0,5.0,62,0.00,,,-99.99,,2013-01-27 17:52:00,
2013-01-27 13:02:00,32.0,21.0,-100.00,SSW,210,1.0,5.0,62,0.00,,,-99.99,,2013-01-27 18:02:00,
2013-01-27 13:12:00,33.0,21.0,-100.00,NW,305,0.0,5.0,60,0.00,,,-99.99,,2013-01-27 18:12:00,
2013-01-27 13:22:00,34.0,22.0,-100.00,East,90,0.0,5.0,60,0.00,,,-99.99,,2013-01-27 18:22:00,
2013-01-27 13:32:00,34.0,22.0,-100.00,East,90,0.0,5.0,60,0.00,,,-99.99,,2013-01-27 18:32:00,
2013-01-27 13:42:00,33.0,21.0,-100.00,West,275,2.0,6.0,60,0.00,,,-99.99,,2013-01-27 18:42:00,
2013-01-27 13:52:00,35.0,22.0,-100.00,ESE,115,3.0,5.0,59,0.00,,,-99.99,,2013-01-27 18:52:00,
2013-01-27 14:02:00,35.0,22.0,-100.00,ESE,115,3.0,5.0,59,0.00,,,-99.99,,2013-01-27 19:02:00,
2013-01-27 14:12:00,35.0,22.0,-100.00,ESE,105,2.0,6.0,59,0.00,,,-99.99,,2013-01-27 19:12:00,
2013-01-27 14:22:00,35.0,22.0,-100.00,ESE,105,2.0,6.0,59,0.00,,,-99.99,,2013-01-27 19:22:00,
2013-01-27 14:32:00,37.0,23.0,-100.00,East,95,1.0,5.0,56,0.00,,,-99.99,,2013-01-27 19:32:00,
2013-01-27 14:42:00,38.0,23.0,-100.00,SE,140,0.0,4.0,55,0.00,,,-99.99,,2013-01-27 19:42:00,
2013-01-27 14:52:00,36.0,20.0,-100.00,WSW,245,1.0,3.0,53,0.00,,,-99.99,,2013-01-27 19:52:00,
2013-01-27 15:03:00,36.0,20.0,-100.00,WSW,245,1.0,3.0,53,0.00,,,-99.99,,2013-01-27 20:03:00,
2013-01-27 15:12:00,36.0,21.0,-100.00,WNW,300,0.0,3.0,54,0.00,,,-99.99,,2013-01-27 20:12:00,
2013-01-27 15:22:00,37.0,22.0,-100.00,West,280,1.0,4.0,53,0.00,,,-99.99,,2013-01-27 20:22:00,
2013-01-27 15:33:00,37.0,22.0,-100.00,West,280,1.0,4.0,53,0.00,,,-99.99,,2013-01-27 20:33:00,
2013-01-27 15:42:00,38.0,21.0,-100.00,North,0,1.0,4.0,50,0.00,,,-99.99,,2013-01-27 20:42:00,
2013-01-27 15:52:00,37.0,21.0,-100.00,SW,235,2.0,3.0,52,0.00,,,-99.99,,2013-01-27 20:52:00,
2013-01-27 16:02:00,37.0,21.0,-100.00,SW,235,2.0,3.0,52,0.00,,,-99.99,,2013-01-27 21:02:00,
2013-01-27 16:12:00,36.0,20.0,-100.00,WSW,255,0.0,3.0,52,0.00,,,-99.99,,2013-01-27 21:12:00,
2013-01-27 16:22:00,37.0,21.0,-100.00,SSE,150,0.0,3.0,53,0.00,,,-99.99,,2013-01-27 21:22:00,
2013-01-27 16:33:00,37.0,21.0,-100.00,SSE,150,0.0,3.0,53,0.00,,,-99.99,,2013-01-27 21:33:00,
2013-01-27 16:42:00,36.0,20.0,-100.00,West,270,0.0,2.0,53,0.00,,,-99.99,,2013-01-27 21:42:00,
2013-01-27 16:52:00,35.0,20.0,-100.00,SSW,195,0.0,1.0,54,0.00,,,-99.99,,2013-01-27 21:52:00,
2013-01-27 17:02:00,35.0,20.0,-100.00,SSW,195,0.0,1.0,54,0.00,,,-99.99,,2013-01-27 22:02:00,
2013-01-27 17:12:00,35.0,21.0,-100.00,West,280,0.0,1.0,56,0.00,,,-99.99,,2013-01-27 22:12:00,
2013-01-27 17:22:00,35.0,21.0,-100.00,SSW,200,0.0,1.0,57,0.00,,,-99.99,,2013-01-27 22:22:00,
2013-01-27 17:32:00,35.0,21.0,-100.00,SSW,200,0.0,1.0,57,0.00,,,-99.99,,2013-01-27 22:32:00,
2013-01-27 17:42:00,34.0,21.0,-100.00,SSE,150,0.0,0.0,59,0.00,,,-99.99,,2013-01-27 22:42:00,
2013-01-27 17:52:00,34.0,22.0,-100.00,SW,215,0.0,1.0,61,0.00,,,-99.99,,2013-01-27 22:52:00,
2013-01-27 18:02:00,34.0,22.0,-100.00,SW,215,0.0,1.0,61,0.00,,,-99.99,,2013-01-27 23:02:00,
2013-01-27 18:12:00,33.0,23.0,-100.00,North,10,1.0,2.0,65,0.00,,,-99.99,,2013-01-27 23:12:00,
2013-01-27 18:22:00,33.0,23.0,-100.00,North,10,1.0,2.0,65,0.00,,,-99.99,,2013-01-27 23:22:00,
2013-01-27 18:32:00,32.0,23.0,-100.00,NE,35,1.0,3.0,67,0.00,,,-99.99,,2013-01-27 23:32:00,
2013-01-27 18:42:00,32.0,23.0,-100.00,North,0,1.0,3.0,70,0.00,,,-99.99,,2013-01-27 23:42:00,
2013-01-27 18:52:00,32.0,24.0,-100.00,North,0,0.0,2.0,71,0.00,,,-99.99,,2013-01-27 23:52:00,
2013-01-27 19:02:00,32.0,24.0,-100.00,North,0,0.0,2.0,71,0.00,,,-99.99,,2013-01-28 00:02:00,
2013-01-27 19:12:00,32.0,24.0,-100.00,NNE,25,1.0,3.0,72,0.00,,,-99.99,,2013-01-28 00:12:00,
2013-01-27 19:21:00,31.0,23.0,-100.00,NNE,25,2.0,4.0,72,0.00,,,-99.99,,2013-01-28 00:21:00,
2013-01-27 19:32:00,31.0,23.0,-100.00,NNE,25,2.0,4.0,72,0.00,,,-99.99,,2013-01-28 00:32:00,
2013-01-27 19:42:00,32.0,24.0,-100.00,NNE,25,1.0,2.0,73,0.00,,,-99.99,,2013-01-28 00:42:00,
2013-01-27 19:51:00,31.0,24.0,-100.00,NNE,25,2.0,4.0,74,0.00,,,-99.99,,2013-01-28 00:51:00,
2013-01-27 20:02:00,31.0,24.0,-100.00,NNE,25,2.0,4.0,74,0.00,,,-99.99,,2013-01-28 01:02:00,
2013-01-27 20:12:00,32.0,24.0,-100.00,NE,40,2.0,4.0,74,0.00,,,-99.99,,2013-01-28 01:12:00,
2013-01-27 20:22:00,32.0,24.0,-100.00,NE,40,2.0,4.0,74,0.00,,,-99.99,,2013-01-28 01:22:00,
2013-01-27 20:33:00,32.0,24.0,-100.00,NE,45,2.0,4.0,74,0.00,,,-99.99,,2013-01-28 01:33:00,
2013-01-27 20:42:00,31.0,24.0,-100.00,NNE,15,0.0,4.0,74,0.00,,,-99.99,,2013-01-28 01:42:00,
2013-01-27 20:52:00,32.0,24.0,-100.00,NE,40,0.0,2.0,73,0.00,,,-99.99,,2013-01-28 01:52:00,
2013-01-27 21:02:00,32.0,24.0,-100.00,NE,40,0.0,2.0,73,0.00,,,-99.99,,2013-01-28 02:02:00,
2013-01-27 21:11:00,31.0,24.0,-100.00,WSW,240,0.0,2.0,74,0.00,,,-99.99,,2013-01-28 02:11:00,
2013-01-27 21:22:00,31.0,24.0,-100.00,WSW,240,0.0,2.0,74,0.00,,,-99.99,,2013-01-28 02:22:00,
2013-01-27 21:32:00,31.0,25.0,-100.00,NE,35,0.0,2.0,76,0.00,,,-99.99,,2013-01-28 02:32:00,
2013-01-27 21:42:00,31.0,25.0,-100.00,North,10,1.0,2.0,76,0.00,,,-99.99,,2013-01-28 02:42:00,
2013-01-27 21:52:00,31.0,25.0,-100.00,North,10,1.0,2.0,76,0.00,,,-99.99,,2013-01-28 02:52:00,
2013-01-27 22:02:00,32.0,25.0,-100.00,NNE,25,1.0,3.0,75,0.00,,,-99.99,,2013-01-28 03:02:00,
2013-01-27 22:12:00,32.0,24.0,-100.00,NNE,25,0.0,1.0,73,0.00,,,-99.99,,2013-01-28 03:12:00,
2013-01-27 22:22:00,32.0,24.0,-100.00,ENE,65,1.0,2.0,72,0.00,,,-99.99,,2013-01-28 03:22:00,
2013-01-27 22:32:00,32.0,24.0,-100.00,ENE,65,1.0,2.0,72,0.00,,,-99.99,,2013-01-28 03:32:00,
2013-01-27 22:42:00,32.0,24.0,-100.00,NNE,25,1.0,4.0,72,0.00,,,-99.99,,2013-01-28 03:42:00,
2013-01-27 22:52:00,32.0,24.0,-100.00,NNE,20,2.0,4.0,73,0.00,,,-99.99,,2013-01-28 03:52:00,
2013-01-27 23:02:00,32.0,24.0,-100.00,NNE,20,2.0,4.0,73,0.00,,,-99.99,,2013-01-28 04:02:00,
2013-01-27 23:11:00,32.0,24.0,-100.00,North,0,1.0,3.0,73,0.00,,,-99.99,,2013-01-28 04:11:00,
2013-01-27 23:22:00,32.0,24.0,-100.00,NE,45,0.0,2.0,72,0.00,,,-99.99,,2013-01-28 04:22:00,
2013-01-27 23:32:00,32.0,24.0,-100.00,NE,45,0.0,2.0,72,0.00,,,-99.99,,2013-01-28 04:32:00,
2013-01-27 23:42:00,32.0,24.0,-100.00,NNE,25,0.0,2.0,72,0.00,,,-99.99,,2013-01-28 04:42:00,
2013-01-27 23:52:00,32.0,24.0,-100.00,NW,320,1.0,2.0,72,0.00,,,-99.99,,2013-01-28 04:52:00,